Terminal Aerodrome Forecast
Issued by NWS Wilmington, OH

Current Version | Previous Version | Text Only | Print | Product List | Glossary Off
Versions: 1 2 3 4 5 6 7 8 9 10 11 12 13 14 15 16 17 18 19 20 21 22 23 24 25

000
FTUS41 KILN 131400 AAA
TAFCVG
TAF AMD
KCVG 131457Z 1315/1418 22006KT P6SM VCSH FEW060 BKN150 OVC250
     FM131900 23012G20KT P6SM VCTS BKN040CB
     FM132100 24010G18KT 5SM -SHRA VCTS BKN035CB
     FM140000 26010KT P6SM VCSH BKN035
     FM140600 27004KT P6SM VCSH BKN040
     FM141600 27008KT P6SM VCSH SCT040 BKN100=

USA.gov is the U.S. government's official web portal to all federal, state and local government web resources and services.